Theta_e
318 321 317 316 314 312 312 310 307 304 301 302 303 302 300 300 300 298 297 297 297 296 295 295 295 294 295 296 296 296 296 296 295 294 293 292 291 290
321 321 316 314 314 313 310 307 306 304 302 302 302 301 301 301 300 298 298 297 296 296 296 296 296 295 294 294 294 295 294 295 295 294 293 292 291 290
318 316 313 314 313 309 307 304 302 302 299 299 300 301 299 298 298 297 297 297 296 296 296 296 296 295 295 295 294 294 294 294 294 292 292 292 291 290
317 313 311 310 308 306 305 302 302 301 299 297 298 298 298 297 297 297 296 296 295 295 294 294 294 295 295 295 295 293 294 293 293 291 291 291 291 289
314 311 308 307 305 303 302 301 301 299 298 297 297 296 295 296 294 293 292 292 292 291 291 291 291 292 293 293 293 293 293 293 292 291 291 290 290 288
309 308 306 306 305 302 300 300 299 298 296 295 293 292 291 291 289 288 286 285 284 283 283 283 283 285 288 290 291 291 292 292 292 291 290 289 290 286
304 303 302 301 300 300 299 298 297 295 292 290 289 288 287 285 283 283 283 284 284 284 284 284 286 287 285 286 289 290 291 292 291 291 290 289 288 286
300 299 299 299 298 297 296 294 292 290 289 286 284 283 282 282 283 283 283 283 284 284 284 284 283 284 284 283 286 288 290 290 290 290 289 288 286 285
299 297 295 293 293 292 291 289 288 285 283 282 282 282 282 282 282 282 282 282 282 282 282 283 283 283 283 283 284 284 285 289 289 289 288 286 285 284
296 294 293 290 289 288 287 284 282 281 281 282 282 282 281 281 282 282 282 282 282 282 283 283 283 283 283 284 284 285 288 288 288 287 285 285 285 284
290 289 288 286 284 283 281 280 281 281 280 280 279 278 278 279 281 282 281 282 282 282 283 283 283 283 284 284 284 285 286 287 287 285 284 284 284 283
285 283 283 281 279 279 280 281 280 280 279 278 277 277 277 277 278 278 280 280 280 281 283 283 283 283 284 284 285 286 286 286 285 284 284 284 283 282
283 281 279 278 279 280 280 279 279 278 277 276 276 276 276 276 275 275 276 277 278 278 279 279 282 283 284 284 284 284 285 286 284 284 283 282 282 281
281 279 278 279 280 280 279 278 277 276 275 274 274 275 275 274 274 274 275 275 276 277 278 278 280 283 284 284 283 283 284 284 283 283 283 282 281 281
279 278 278 278 279 278 277 277 276 274 273 273 273 273 273 273 272 272 273 274 274 275 277 279 279 282 284 284 284 283 283 283 282 283 282 281 281 281
278 278 278 278 277 277 276 275 274 273 272 273 272 272 271 271 271 271 271 272 273 275 276 278 281 283 284 284 283 283 283 283 283 283 282 281 282 282
278 278 277 276 276 275 274 274 273 272 272 271 271 270 270 270 269 270 270 270 271 273 274 277 280 284 284 284 283 283 283 283 283 283 281 281 282 282
277 276 276 275 274 274 273 273 272 271 271 270 270 269 268 269 268 269 268 268 270 271 272 273 276 282 283 283 284 283 283 283 283 282 282 281 282 282
276 276 275 274 273 272 272 271 271 270 269 269 268 267 267 267 266 267 267 267 268 269 270 272 275 279 283 283 283 283 283 284 283 282 282 281 282 281
275 274 273 272 271 271 270 269 269 268 267 267 266 266 266 266 266 266 266 266 266 268 269 272 274 276 281 283 282 283 283 283 282 282 282 282 281 281
273 272 272 271 270 269 268 268 267 267 266 266 266 265 266 265 264 264 265 265 265 267 268 269 271 272 274 279 282 282 282 282 282 282 282 281 281 281
271 270 270 269 268 267 267 266 266 265 265 265 265 265 265 264 264 264 264 264 265 265 266 268 270 272 274 281 282 282 282 282 282 282 282 281 281 281
268 267 267 267 266 266 265 264 264 264 264 264 264 264 263 263 264 263 263 264 264 265 265 268 269 271 273 281 282 281 281 281 280 281 281 281 281 281
Wind_Speed
27 31 35 34 26 25 23 21 12 3 4 5 5 6 5 5 11 15 15 14 13 15 16 19 22 27 32 37 39 39 34 31 29 26 23 22 20 20
30 34 34 30 24 21 20 19 16 11 3 11 9 11 13 18 18 16 16 17 19 21 23 24 26 27 29 32 35 39 41 38 32 29 26 25 22 22
30 33 32 26 19 19 17 16 13 12 8 8 11 16 17 15 16 17 19 20 21 23 25 27 30 32 34 35 38 40 41 41 35 30 28 29 26 24
31 31 27 22 19 17 16 16 13 12 10 9 11 15 15 16 21 23 22 21 22 24 26 27 29 32 34 36 39 35 38 40 41 35 30 29 31 28
32 27 24 21 18 17 15 14 12 12 11 9 8 12 14 21 18 19 21 24 26 28 31 32 33 33 34 35 37 39 39 38 41 39 33 32 32 30
23 20 21 20 19 16 14 10 9 9 9 7 8 8 11 15 19 20 25 30 32 32 34 33 32 33 35 38 39 40 40 34 38 36 29 30 33 31
14 14 13 13 10 12 10 8 8 7 5 4 7 9 15 16 16 16 23 25 27 29 22 24 25 28 33 34 32 33 34 36 32 33 31 30 30 26
20 18 15 11 11 7 7 8 5 5 5 6 8 11 14 17 17 19 22 16 9 14 16 30 31 31 34 33 33 31 32 35 33 29 27 28 25 23
21 17 15 11 9 6 5 5 5 5 5 6 8 11 13 14 18 21 19 16 18 25 24 30 23 30 32 30 30 32 33 32 28 28 27 25 22 22
16 14 11 9 7 6 4 4 4 4 4 5 7 11 14 17 17 16 20 24 26 25 22 24 24 29 32 30 28 27 26 24 28 22 23 22 21 21
13 10 8 6 3 3 3 3 3 3 4 6 8 11 13 14 14 17 17 17 22 21 20 24 25 25 27 30 27 26 26 27 25 23 21 20 20 19
12 8 4 1 2 2 3 2 3 5 10 12 13 12 12 11 10 11 14 17 17 17 7 9 17 16 11 19 19 20 22 21 20 20 19 18 16 16
9 6 3 2 1 1 1 4 5 7 10 12 14 14 13 14 15 15 16 16 19 22 31 22 24 20 13 16 18 19 16 16 17 19 17 14 14 16
6 4 2 2 3 2 2 4 6 8 11 12 13 11 12 14 16 19 19 21 22 30 36 30 23 20 17 11 11 13 13 15 18 16 13 13 14 16
3 1 0 1 2 1 3 5 7 9 10 11 9 11 13 15 17 19 19 21 24 28 27 27 29 30 25 21 11 9 14 18 19 15 14 13 10 13
2 2 1 2 1 2 4 6 8 8 9 9 11 14 15 15 15 16 20 21 23 29 23 24 22 26 24 21 19 12 18 10 17 18 15 15 14 15
2 1 1 1 2 4 5 6 7 8 9 10 13 14 16 15 16 15 17 20 18 22 29 34 26 22 27 20 16 16 18 18 15 12 12 16 16 13
2 0 2 2 4 4 5 6 8 9 10 12 13 14 17 16 18 17 17 18 20 20 23 27 30 12 12 18 24 18 20 18 14 14 14 12 12 10
4 4 5 5 6 5 6 7 10 11 13 14 14 17 17 16 18 17 18 17 19 20 22 23 22 20 6 7 8 23 20 17 15 12 14 15 12 11
4 5 5 6 7 8 9 9 11 15 16 14 18 18 18 16 17 17 18 17 19 21 24 21 19 21 10 5 8 12 16 16 15 13 11 12 11 9
3 5 7 8 8 10 12 15 16 17 18 20 20 19 18 17 19 17 18 18 19 19 21 22 23 27 26 12 6 8 12 14 14 13 11 9 6 5
6 7 7 8 12 15 16 17 17 20 21 21 21 20 18 20 22 21 20 18 17 20 23 25 26 25 23 15 8 9 13 11 11 12 12 11 5 3
8 9 13 15 17 16 17 20 21 23 23 22 21 21 21 22 20 19 18 18 19 21 22 24 23 22 21 16 11 11 10 11 10 10 10 11 12 11
Wind_Direction
260 262 252 246 244 239 242 236 208 182 215 224 227 249 229 254 274 286 286 285 287 276 276 276 281 276 271 264 261 261 259 257 256 256 260 269 273 283
254 252 242 240 232 233 225 224 215 209 205 210 234 263 270 289 289 289 292 286 284 285 280 281 285 279 274 272 270 268 265 257 254 260 261 262 263 273
252 244 238 236 229 219 207 217 217 206 206 238 252 279 289 296 299 295 295 294 291 288 286 284 283 280 276 274 273 271 267 262 249 254 258 268 264 269
247 241 230 224 212 208 203 209 222 232 229 243 269 285 289 299 300 297 297 297 297 297 295 294 291 287 284 282 280 274 273 267 248 251 255 261 261 265
245 230 225 207 202 199 204 212 225 237 241 238 274 280 289 292 296 301 304 300 299 299 296 295 293 290 287 285 281 281 281 266 251 252 252 260 257 256
232 227 216 204 195 195 203 213 216 234 244 241 256 276 292 300 307 310 310 307 308 306 302 300 297 294 290 286 284 284 277 257 255 251 247 256 257 255
203 189 178 179 184 186 188 207 222 216 225 267 288 287 299 306 312 312 308 311 312 313 308 305 306 301 297 293 295 284 270 265 248 257 261 257 249 253
163 161 159 174 175 203 188 199 210 238 270 279 286 290 296 305 311 313 313 314 316 306 315 304 301 296 297 292 288 287 272 264 265 262 256 252 243 252
159 156 148 158 161 176 189 224 256 282 293 282 284 296 302 309 313 311 310 302 287 296 305 295 296 294 304 301 287 280 281 275 258 254 249 238 247 253
155 158 161 157 168 187 217 250 274 295 289 290 300 304 302 308 307 299 297 294 290 288 288 279 292 286 299 297 299 292 284 260 257 241 235 244 251 238
139 143 151 157 189 274 276 285 309 318 316 318 308 302 299 293 286 293 294 298 294 292 282 266 281 284 297 298 300 288 278 271 245 235 246 247 235 238
132 120 127 114 333 338 304 303 326 324 329 324 321 317 316 313 307 296 293 290 297 311 334 258 287 297 298 302 304 300 276 251 222 243 238 224 225 241
123 114 94 76 91 161 347 348 355 324 326 327 324 324 323 323 319 314 304 288 284 271 279 293 289 283 252 285 292 289 263 225 228 214 210 227 245 251
134 138 141 137 122 142 5 342 322 329 327 330 327 323 322 317 314 314 310 302 283 275 292 283 273 267 258 258 264 272 230 217 210 208 233 247 251 262
122 156 191 102 161 236 321 320 322 328 333 332 322 313 310 307 310 312 308 308 295 296 297 299 267 259 252 250 250 220 210 221 220 229 238 239 241 245
360 16 53 154 201 299 312 319 324 325 326 314 310 311 311 311 309 311 310 314 308 308 305 318 298 263 247 238 226 201 205 208 221 230 232 215 250 267
27 49 163 224 302 315 310 312 314 317 317 310 312 310 311 308 312 314 314 315 305 305 314 325 328 280 239 231 201 202 208 219 226 230 212 232 260 261
44 254 258 286 305 304 297 305 308 305 306 304 302 306 310 308 314 317 318 314 306 307 311 318 325 265 213 216 219 206 220 224 232 229 229 228 258 248
309 273 251 267 287 289 286 290 293 295 301 297 296 304 306 305 317 312 313 311 311 309 309 311 309 292 204 207 201 221 223 225 228 227 225 224 241 268
280 247 258 280 282 284 291 293 296 299 301 295 301 303 306 302 307 304 311 310 313 311 310 315 316 328 323 245 186 208 214 219 218 220 227 230 255 268
272 288 292 289 285 294 297 300 299 298 299 300 299 299 301 302 303 300 307 308 310 311 309 307 311 311 306 269 183 179 195 210 227 231 229 226 232 233
322 312 298 290 299 301 301 301 301 302 304 303 301 301 296 302 300 304 308 304 307 311 303 302 312 315 312 243 204 188 194 203 215 221 228 231 196 196
334 320 312 309 308 305 305 306 304 302 300 298 298 301 304 303 303 300 296 299 306 309 310 308 314 317 317 247 202 188 181 186 197 194 211 226 232 237